Вернуться в каталог

ATLAS CENTAUR 2 R/B

АктивенLEO
NORAD 694·ROCKET BODY·🇺🇸 United States

Запущен Nov 27, 1963 с Cape Canaveral Space Force Station

Loading…

Ближайшие Пролёты (ближайшие 24 часа)

TLE

СвежийSource: Space-Track

Эпоха: Sep 14, 2026, 23:01 UTC

1 00694U 63047A   26257.95920826  .00002192  00000-0  25413-3 0  9994
2 00694  30.3554 217.2947 0545042 309.2945  46.0521 14.12691050158400

Отслеживайте ATLAS CENTAUR 2 R/B в реальном времени с AllMySat

Download on the App Store